{"data":{"norad_id":54660,"intl_designator":"2022-166U","name":"ONEWEB-0594","alt_names":[],"object_type":"PAYLOAD","status":"ACTIVE","operator":null,"country":"UK","launch_date":"2022-12-08","launch_site_code":"AFETR","launch_vehicle":null,"mission":null,"orbit_class":"UNKNOWN","rcs_meters":null,"size_class":null,"mass_kg":null,"dimensions":null,"purposes":["comms"],"wikipedia_slug":null,"has_3d_model":false,"image_url":null,"decayed_at":null,"tle_current":{"epoch":"2026-05-25T00:58:14.331360Z","epoch_age_seconds":72378,"freshness":"FRESH","line1":"1 54660U 22166U   26145.04044365  .00000007  00000+0 -14092-4 0  9999","line2":"2 54660  87.9253 248.5980 0001888 100.6425 259.4921 13.21827484168508","mean_motion":13.21827484,"eccentricity":0.0001888,"inclination_deg":87.9253,"raan_deg":248.598,"arg_perigee_deg":100.6425,"mean_anomaly_deg":259.4921,"bstar":-1.4092e-5,"rev_number":16850,"period_min":108.94008616332,"perigee_km":1176.3211620608,"apogee_km":1179.1742641285,"semimajor_km":7555.8847130946,"source":"CELESTRAK","updated_at":"2026-05-25T13:38:22.633673Z"}}}